Regional Weather Roundup
Issued by NWS

Home | Current Version | Previous Version | Text Only | Print | Product List | Glossary Off
Versions: 1 2 3 4 5 6 7 8 9 10 11 12 13 14 15 16 17 18 19 20 21 22 23 24 25 26 27

000
ASUS45 KBOU 191407
RWRCO

WEATHER ROUNDUP FOR COLORADO
NATIONAL WEATHER SERVICE DENVER/BOULDER CO
800 AM MDT WED JUL 19 2017

NOTE: "FAIR" INDICATES FEW OR NO CLOUDS BELOW 12000 FEET WITH NO
SIGNIFICANT WEATHER AND/OR OBSTRUCTIONS TO VISIBILITY.

COZ001>005-013-030-031-191500-
...NORTHWEST COLORADO...

CITY           SKY/WX    TMP DP  RH WIND       PRES   REMARKS
CRAIG          FAIR      62  49  62 CALM      30.30R
HAYDEN         FAIR      64  43  45 E8        30.33R
MEEKER         FAIR      63  51  65 CALM      30.33R
RABBIT EARS PA FAIR      61  41  48 CALM      30.64S
STEAMBOAT SPGS FAIR      59  48  67 NW3       30.36R
WALDEN         FAIR      57  41  54 CALM      30.46S
$$

COZ006>008-011-191500-
...WEST CENTRAL VALLEYS...

CITY           SKY/WX    TMP DP  RH WIND       PRES   REMARKS
GRAND JUNCTION FAIR      79  51  37 SE16      30.20R
MONTROSE       FAIR      74  51  44 E9        30.31S
EAGLE          SUNNY     66  48  52 CALM      30.40R
RIFLE          FAIR      69  54  58 N3        30.28R
DELTA          FAIR      76  49  38 CALM      30.27S
NUCLA          NOT AVBL
$$

COZ017>023-064>068-191500-
...SOUTHWEST COLORADO...

CITY           SKY/WX    TMP DP  RH WIND       PRES   REMARKS
DURANGO        FAIR      68  51  54 VRB3      30.40S
CORTEZ         FAIR      75  55  49 W3        30.30S
PAGOSA SPRINGS FAIR      59  56  88 CALM      30.49R
TELLURIDE      CLOUDY    60  49  66 SE7       30.58R
WOLF CREEK PAS FAIR      48  43  81 SW9       30.82R
$$

COZ009-010-012-014-032>034-037-058>063-191500-
...CENTRAL COLORADO...

CITY           SKY/WX    TMP DP  RH WIND       PRES   REMARKS
ASPEN          FAIR      57  48  72 W3        30.44R
BUENA VISTA    FAIR      58  49  71 CALM      30.48S
COPPER MTN     PTSUNNY   59  39  47 W6        30.78R
BERTHOUD PASS  FAIR      50  36  57 NW12      30.80R
COTTONWOOD PAS FAIR      63  43  48 NW3       30.60F
GUNNISON       FAIR      57  50  77 CALM      30.50R
KREMMLING      FAIR      61  46  59 CALM      30.45S
LEADVILLE      CLOUDY    53  45  74 CALM      30.58F
MONARCH PASS   FAIR      48  43  81 W21       30.86S
SALIDA         FAIR      62  50  65 NW14      30.51R
SUNLIGHT       FAIR      55  43  62 SW10G20   30.70R
WILKERSON PASS FAIR      50  43  76 W10G16    30.72R
$$

COZ069>075-191500-
...SAN LUIS VALLEY/SANGRE DE CRISTO MOUNTAINS...

CITY           SKY/WX    TMP DP  RH WIND       PRES   REMARKS
ALAMOSA        FAIR      61  55  81 W5        30.47R
DEL NORTE      FAIR      59  53  80 CALM      30.52R
LA VETA PASS   NOT AVBL
SAGUACHE         N/A    N/A N/A N/A MISG        N/A
$$

COZ035-036-038>040-191500-
...NORTHERN COLORADO FRONT RANGE...

CITY           SKY/WX    TMP DP  RH WIND       PRES   REMARKS
DENVER INTL AP FAIR      78  51  38 W10       30.18R
DMNS CITY PARK   N/A     77  51  40 S5        30.19R
AURORA         MOSUNNY   80  51  37 S10       30.21R
FRONT RANGE AP MOSUNNY   81  54  39 NW8       30.20R
ERIE MUNI ARPT FAIR      72  54  52 NW3       30.17F
BOULDER MUN AP FAIR      73  50  43 CALM      30.19R
CENTENNIAL     FAIR      78  50  37 S9        30.22S
BROOMFIELD     FAIR      73  46  38 NW8       30.21S
FORT COLLINS   FAIR      70  55  59 CALM      30.17S
LONGMONT       FAIR      75  54  48 W3        30.19S
$$

COZ041-046-047-076>085-087-088-191500-
...PIKES PEAK/PALMER DIVIDE AND SOUTHERN FOOTHILLS...

CITY           SKY/WX    TMP DP  RH WIND       PRES   REMARKS
COLO. SPRINGS  FAIR      73  61  65 E3        30.28S
A. F. ACADEMY  NOT AVBL
SCHRIEVER AFB  NOT AVBL
CHEYENNE MTN   NOT AVBL
ELLICOTT       FAIR     N/A N/A N/A S5        30.26F
FALCON           N/A     71  56  58 CALM      30.34F
FORT CARSON    FAIR      71  58  64 N5        30.26R
LIMON          FAIR      72  63  73 CALM      30.22S
MONUMENT HILL  FAIR      70  54  56 S8        30.35S
CANON CITY     SUNNY     77  55  47 W14       30.23S
WALSENBURG     FAIR      79  52  38 MISG      30.30R
TRINIDAD       FAIR      73  53  49 W14       30.29R
$$

COZ042>045-048>051-090-091-191500-
...NORTHEAST COLORADO...

CITY           SKY/WX    TMP DP  RH WIND       PRES   REMARKS
GREELEY ARPT   FAIR      72  60  66 CALM      30.15S
AKRON          FAIR      73  63  70 S9        30.15S
BURLINGTON     FAIR      78  67  68 SW10      30.14R
WRAY           NOT AVBL
YUMA           FOG       68  66  94 CALM      30.13S VSB<1/4
STERLING       FAIR      72  63  73 CALM      30.10F
HOLYOKE        CLOUDY    73  72  94 S5        30.10S FOG
FORT MORGAN    FAIR      75  57  54 E5        30.15S
$$

COZ086-089-092>099-191500-
...SOUTHEAST COLORADO...

CITY           SKY/WX    TMP DP  RH WIND       PRES   REMARKS
PUEBLO         FAIR      73  57  57 W5        30.18F
LA JUNTA       FAIR      75  59  57 SW10      30.16F
LAMAR          FAIR      81  60  48 W6        30.12R
SPRINGFIELD      N/A     80  54  40 SW17G25   30.19R
$$




USA.gov is the U.S. government's official web portal to all federal, state and local government web resources and services.